COSMOS 1559

Satellite information

Favourite Embed

Satellite Type and Status

PAYLOADIN ORBIT

Key statistics

Satellite COSMOS 1559 at a glance.

Uptime

15134

Days in orbit

Revolutions

≈ 12.4

Per day

Orbit

LEO

Low Earth Orbit

Inclination

74.0

Latest

Satellite identification and parameters

Extended collection of information and parameters for COSMOS 1559.

Object identification

Identified? True

Debris? False

Object name: COSMOS 1559

International designator: 1984-052A

Object number (NORAD): 14998

Object ID (CCSDS): 14998

Country: COMMONWEALTH OF INDEPENDENT STATES (CIS)

Current information (Y/N): Y

RCS size: MEDIUM

Orbital parameters

Period: 115.758 minutes

Inclination: 74.009 deg

SMA: 7867.929 km

Apoapsis: 1509.484 km

Periapsis: 1470.104 km

RAAN: 121.7333 deg

Eccentricy: 0.00250253

Argument of periapsis: 97.7853 deg

Mean anomaly: 75.3321 deg

Mean motion: 12.43976343 rev/day

Mean motion (dot): 0.00000014 rev/day2

B* drag term: 0.00020846501 1/REarth

Two-line elements (TLE)

Creation date: Nov. 2, 2025, 5:34 p.m.

Reference frame: TEME

Reference center: EARTH

Epoch: Nov. 2, 2025, 5:44 a.m. UTC

TLE line 0: 0 COSMOS 1559

TLE line 1: 1 14998U 84052A 25306.23893236 .00000014 00000-0 20847-3 0 9991

TLE line 2: 2 14998 74.0090 121.7333 0025025 97.7853 75.3321 12.43976343881310

Live tracking on map

Real-time ground track for satellite COSMOS 1559.

In-orbit conjunctions

A list of the most updated potential collisions computed for object COSMOS 1559.

Target Orbit TCA Probability of collision Miss distance Type
DELTA 1 DEB SSO 2024-12-07 19:10:19 0.0001909556 338.0 (m) DEBRIS

Associated space launch

Military communications satellites

COSMOS 1559 was lifted into orbit during the mission ‘Kosmos-3M | Strela-1M 281-288’, on board a Kosmos-3M space rocket.

The launch took place on May 28, 1984, 9:52 p.m. from 132/2.

For more information about the launch, click the button.

Launch to space Kosmos-3M | Strela-1M 281-288
Kosmos-3M | Strela-1M 281-288

Agency: N/A

Status: Launch Successful

Launch date: May 28, 1984, 9:52 p.m. UTC

Rocket: Kosmos-3M

Launch pad: 132/2

Location: Plesetsk Cosmodrome, Russian Federation

...

Latest news about this satellite

There are no fresh news available about this satellite. Check back as we update our databases every day.


Newsletter sign-up

Weekly statistics, charts and insights to help you stay on top of the space industry.